Starlink 31255

operational
NORAD ID: 58893 Int'l Des: 2024-020 Owner: SPXS Country: US Constellation: starlink
LEOCIRCULAR

关于 Starlink 31255

正在加载描述...

实时位置

正在加载3D地球...

即将过境

高度历史

Altitude vs Time

uPlot chart will show altitude changes over time

两行轨道根数

1 58893U 24020T 25352.26610193 .00000062 00000-0 14206-4 0 9991
2 58893 53.1610 340.7039 0001106 75.9344 284.1780 15.30197379105604
Epoch: Dec 18, 2025 • Age: 17 hours

当前状态

高度 494.4 km
速度 7.62 km/s
星下点 -53.03°S, 178.89°E
发射日期 Jan 29, 2024
运行时间 1.8 years
类型 internet

技术详情

分类 Payload
质量 730.00 kg
干质量 700.00 kg
总质量 730.00 kg
长度 0.30 m
直径 4.10 m
跨度 29.00 m
形状 Box + pan
制造商 SPXS
平台类型 Starlink V2M
阶段状态 In Orbit
所有者/国家 SPXS/US

大型星座

Loading constellations...